Regional Weather Roundup
Issued by NWS Burlington, VT

Home | Current Version | Previous Version | Text Only | Print | Product List | Glossary On
Versions: 1 2 3 4 5 6 7 8 9 10 11 12 13 14 15 16 17 18 19 20 21 22 23 24 25 26 27 28 29 30 31 32 33 34 35 36 37 38 39 40 41 42 43 44 45 46 47 48 49 50
000
ASUS41 KBTV 270510
RWRBTV
VERMONT REGIONAL WEATHER ROUNDUP
NATIONAL WEATHER SERVICE BURLINGTON VT
100 AM EDT WED MAY 27 2015

NOTE: "FAIR" INDICATES FEW OR NO CLOUDS BELOW 12,000 FEET WITH NO
SIGNIFICANT WEATHER AND/OR OBSTRUCTIONS TO VISIBILITY.

* THESE REPORTS ARE NOT UNDER NWS QUALITY CONTROL AND/OR DO NOT
  REPORT WEATHER SUCH AS PRECIPITATION AND FOG.

VTZ001>019-270600-
_____VERMONT_____


CITY           SKY/WX    TMP DP  RH WIND       PRES   REMARKS
BURLINGTON     PTCLDY    75  61  61 S9        30.04S
MONTPELIER     MOCLDY    73  59  61 VRB6      30.13
MORRISVILLE    PTCLDY    62  58  86 CALM      30.09R
ST. JOHNSBURY*   N/A     64  60  87 MISG      30.07S
LYNDONVILLE*     N/A     65  57  75 S3        30.11S
MIDDLEBURY*      N/A     75  63  66 S7        30.08S
RUTLAND*       PTCLDY    70  59  68 SE7       30.11F
SPRINGFIELD    PTCLDY    64  61  90 CALM      30.12F
HIGHGATE*      MOCLDY    69  61  75 S3        30.03S
NEWPORT*         N/A     64  57  78 S7        30.08S
BENNINGTON     CLOUDY    71  64  78 NE3       30.12S
SUTTON*          N/A     63 N/A N/A MISG        N/A

_____LAKE CHAMPLAIN_____


CITY           SKY/WX    TMP DP  RH WIND       PRES   REMARKS

$$

NYZ007-026>031-035-052-083-270600-
_____NORTHERN NEW YORK_____


CITY           SKY/WX    TMP DP  RH WIND       PRES   REMARKS
PLATTSBURGH    MOCLDY    65  59  81 CALM      30.02S
SARANAC LAKE   MOCLDY    64  59  83 SW5       30.08F
MASSENA        LGT RAIN  70  65  84 SW5       30.00F
OGDENSBURG*    CLEAR     70  66  88 S3        29.98F
POTSDAM*       CLEAR     73  66  78 S5        30.01F
WATERTOWN      PTCLDY    72  65  78 S8        30.00S
FT DRUM        CLEAR     73  67  82 S12       30.01F
ALBANY         CLOUDY    75  64  68 S9        30.10S

$$
NHZ002-005-011-270600-
_____NEW HAMPSHIRE_____


CITY           SKY/WX    TMP DP  RH WIND       PRES   REMARKS
LEBANON        PTCLDY    71  63  75 S9        30.10S
KEENE          MOCLDY   N/A N/A N/A S5        30.14F
MT WASHINGTON  FOG       52  52 100 W30         N/A  VSB 1/16
PLYMOUTH         N/A     64  64 100 CALM      30.10S
WHITEFIELD     MOCLDY    61  57  87 CALM      30.10S

$$

_____REGIONAL QUEBEC LOCATIONS_____


CITY           SKY/WX    TMP DP  RH WIND       PRES   REMARKS
MONTREAL       PTCLDY    68  61  77 CALM      29.99F
QUEBEC CITY    PTCLDY    64  64 100 CALM      29.99R
SHERBROOKE     CLEAR     59 N/A N/A CALM      30.06R

_____REGIONAL ONTARIO LOCATIONS_____


CITY           SKY/WX    TMP DP  RH WIND       PRES   REMARKS
OTTAWA         MOCLDY    68  64  88 S6        29.97F

______KEY______
VSB  - VISIBILITY IN MILES
WCI  - WIND CHILL INDEX
HX   - HEAT INDEX
$$
NNNN


USA.gov is the U.S. government's official web portal to all federal, state and local government web resources and services.